Satellite: RS-30
Catalog number: 32953
Epoch time:      12117.53601736
Element set:     729
Inclination:      082.5028 deg
RA of node:       327.2670 deg
Eccentricity:    0.0019715
Arg of perigee:   061.8010 deg
Mean anomaly:     298.5077 deg
Mean motion:   12.43022702 rev/day
Decay rate:        1.0e-07 rev/day^2
Epoch rev:           17814
Checksum:              271

Satellite: TACSAT-3
Catalog number: 35001
Epoch time:      12116.92202569
Element set:    0979
Inclination:      040.4419 deg
RA of node:       024.3411 deg
Eccentricity:    0.0018237
Arg of perigee:   245.3326 deg
Mean anomaly:     114.5583 deg
Mean motion:   16.11353863 rev/day
Decay rate:   1.342310e-02 rev/day^2
Epoch rev:           16621
Checksum:              266

Satellite: PHARMSAT
Catalog number: 35002
Epoch time:      12117.22009461
Element set:     877
Inclination:      040.4637 deg
RA of node:       037.6724 deg
Eccentricity:    0.0005075
Arg of perigee:   220.7717 deg
Mean anomaly:     139.2731 deg
Mean motion:   15.74538273 rev/day
Decay rate:    1.20478e-03 rev/day^2
Epoch rev:           16610
Checksum:              277

Satellite: METEOR-M
Catalog number: 35865
Epoch time:      12117.63833067
Element set:     357
Inclination:      098.6589 deg
RA of node:       172.9175 deg
Eccentricity:    0.0002093
Arg of perigee:   181.6841 deg
Mean anomaly:     178.4334 deg
Mean motion:   14.21860099 rev/day
Decay rate:       -1.1e-07 rev/day^2
Epoch rev:           13527
Checksum:              312

Satellite: RS-38
Catalog number: 35869
Epoch time:      12117.59665150
Element set:     366
Inclination:      098.6526 deg
RA of node:       172.8826 deg
Eccentricity:    0.0004294
Arg of perigee:   192.1735 deg
Mean anomaly:     167.9370 deg
Mean motion:   14.22067107 rev/day
Decay rate:       3.67e-06 rev/day^2
Epoch rev:           13528
Checksum:              331

Satellite: JUGNU
Catalog number: 37839
Epoch time:      12117.30200945
Element set:     136
Inclination:      019.9613 deg
RA of node:       312.5705 deg
Eccentricity:    0.0018999
Arg of perigee:   009.5326 deg
Mean anomaly:     350.5217 deg
Mean motion:   14.12045694 rev/day
Decay rate:       6.19e-06 rev/day^2
Epoch rev:            2790
Checksum:              290

Satellite: SRMSAT
Catalog number: 37841
Epoch time:      12117.63975836
Element set:     137
Inclination:      019.9727 deg
RA of node:       314.3630 deg
Eccentricity:    0.0011487
Arg of perigee:   341.5112 deg
Mean anomaly:     018.4746 deg
Mean motion:   14.10133419 rev/day
Decay rate:       2.64e-06 rev/day^2
Epoch rev:            2790
Checksum:              282

Satellite: RAX-2
Catalog number: 37853
Epoch time:      12117.59780385
Element set:     160
Inclination:      101.7164 deg
RA of node:       134.3111 deg
Eccentricity:    0.0249103
Arg of perigee:   137.9982 deg
Mean anomaly:     224.0608 deg
Mean motion:   14.79469062 rev/day
Decay rate:      7.025e-05 rev/day^2
Epoch rev:            2676
Checksum:              298

Satellite: AUBIESAT
Catalog number: 37854
Epoch time:      12116.95672912
Element set:    0171
Inclination:      101.7176 deg
RA of node:       133.5682 deg
Eccentricity:    0.0250795
Arg of perigee:   139.2285 deg
Mean anomaly:     222.8000 deg
Mean motion:   14.79812386 rev/day
Decay rate:      7.538e-05 rev/day^2
Epoch rev:           02666
Checksum:              311

Satellite: HRBE
Catalog number: 37855
Epoch time:      12116.96568730
Element set:    0171
Inclination:      101.7179 deg
RA of node:       133.5482 deg
Eccentricity:    0.0251534
Arg of perigee:   139.3189 deg
Mean anomaly:     222.7131 deg
Mean motion:   14.79687726 rev/day
Decay rate:      7.138e-05 rev/day^2
Epoch rev:           02666
Checksum:              320

Satellite: RS-39
Catalog number: 38051
Epoch time:      12117.45104406
Element set:     281
Inclination:      051.6317 deg
RA of node:       046.2328 deg
Eccentricity:    0.0010649
Arg of perigee:   210.4147 deg
Mean anomaly:     259.9414 deg
Mean motion:   15.23423882 rev/day
Decay rate:     1.3322e-04 rev/day^2
Epoch rev:            1408
Checksum:              267

Satellite: E-STAR
Catalog number: 38079
Epoch time:      12117.29353923
Element set:     176
Inclination:      069.4944 deg
RA of node:       074.0266 deg
Eccentricity:    0.0757916
Arg of perigee:   313.1377 deg
Mean anomaly:     040.8636 deg
Mean motion:   14.11867668 rev/day
Decay rate:     7.4032e-04 rev/day^2
Epoch rev:            1025
Checksum:              317

Satellite: GOLIAT
Catalog number: 38085
Epoch time:      12117.25084711
Element set:     172
Inclination:      069.4928 deg
RA of node:       074.2367 deg
Eccentricity:    0.0758917
Arg of perigee:   313.3327 deg
Mean anomaly:     040.6816 deg
Mean motion:   14.11009920 rev/day
Decay rate:     6.7288e-04 rev/day^2
Epoch rev:            1024
Checksum:              297

/EX


_______________________________________________
Via the Keps mailing list courtesy of AMSAT-NA
http://amsat.org/mailman/listinfo/keps

--- ViaMAIL!/WC v1.60d
 * Origin: Chowdanet (401-724-4410) telnet://chowdanet.com  (1:323/120)